Location: City of Moscow
(46.7306°N, 116.9989°W)
Time: 02:50:40
(UTC+00:00)

USA 234 - Pass Details

Date: 07 March 2026
Orbit: 1102 x 1106 km, 123.0° (Epoch: 4 January)

Event Time Altitude Azimuth Distance (km) Brightness Sun altitude
Exits shadow 06:08:41 24° 273° (W) 2,124 5.0 -42.2°
Drops below altitude 10° 06:11:37 10° 294° (WNW) 2,968 6.0 -42.5°
Sets 06:14:25 0° 304° (WNW) 3,930 6.9 -42.8°
